nws-alerts: Checking more than four warning/county codes can delay the loading of your pages. You should use a cron job to get the data.
EllijayWeather Station Historical Data
Daily Summary for February 10, 2019 Units:  English    Metric   Both
Daily Weekly Monthly Yearly Custom
  High: Low: Average:
Temperature: 45.1 °F 35.2 °F 39.7 °F
Dew Point: 41.0 °F 15.6 °F 27.7 °F
Humidity: 97% 34% 67%
Wind Speed: 8.1mph 0.0mph 0.6mph
Wind Gust: 11.0mph - -
Wind- - ESE
Pressure: 30.60 in 30.35 in -
Precipitation: 0.16 in    
Historical Graphs
 
 
Tabular Data for February 10, 2019
Time Temperature Dew Point Pressure Wind Wind Speed Wind Gust Humidity Rainfall Rate (Hourly) solar
00:04 45.1 °F 19.8 °F 30.60 in Calm     36% 0.00 in meteobridge W/m2
00:09 45.0 °F 18.9 °F 30.60 in Calm   4.0 mph 35% 0.00 in meteobridge W/m2
00:14 45.0 °F 19.6 °F 30.60 in Calm   1.0 mph 36% 0.00 in meteobridge W/m2
00:19 44.8 °F 18.9 °F 30.59 in Calm   2.0 mph 35% 0.00 in meteobridge W/m2
00:24 44.8 °F 18.9 °F 30.59 in Calm   2.0 mph 35% 0.00 in meteobridge W/m2
00:29 44.4 °F 19.0 °F 30.60 in Calm   4.0 mph 36% 0.00 in meteobridge W/m2
00:34 44.2 °F 17.6 °F 30.60 in East 0.9 mph 5.0 mph 34% 0.00 in meteobridge W/m2
00:39 44.1 °F 18.1 °F 30.60 in SE 6.9 mph 7.0 mph 35% 0.00 in meteobridge W/m2
00:44 44.1 °F 17.4 °F 30.59 in Calm   2.0 mph 34% 0.00 in meteobridge W/m2
00:49 43.9 °F 18.0 °F 30.59 in Calm   6.0 mph 35% 0.00 in meteobridge W/m2
00:54 43.7 °F 17.8 °F 30.59 in Calm   5.0 mph 35% 0.00 in meteobridge W/m2
00:59 43.5 °F 17.6 °F 30.58 in Calm   6.0 mph 35% 0.00 in meteobridge W/m2
01:04 43.5 °F 18.3 °F 30.58 in Calm   1.0 mph 36% 0.00 in meteobridge W/m2
01:09 43.3 °F 17.6 °F 30.58 in SE 4.9 mph 5.0 mph 35% 0.00 in meteobridge W/m2
01:14 43.5 °F 17.1 °F 30.59 in Calm   4.0 mph 34% 0.00 in meteobridge W/m2
01:19 43.3 °F 18.1 °F 30.58 in Calm   1.0 mph 36% 0.00 in meteobridge W/m2
01:24 43.3 °F 17.6 °F 30.59 in Calm   4.0 mph 35% 0.00 in meteobridge W/m2
01:29 43.3 °F 17.6 °F 30.58 in SE 2.0 mph 7.0 mph 35% 0.00 in meteobridge W/m2
01:34 43.3 °F 17.6 °F 30.58 in Calm   4.0 mph 35% 0.00 in meteobridge W/m2
01:39 43.3 °F 17.6 °F 30.58 in Calm   5.0 mph 35% 0.00 in meteobridge W/m2
01:44 43.3 °F 16.9 °F 30.58 in Calm   5.0 mph 34% 0.00 in meteobridge W/m2
01:49 43.2 °F 16.7 °F 30.58 in ESE 0.9 mph 4.0 mph 34% 0.00 in meteobridge W/m2
01:54 43.2 °F 16.7 °F 30.58 in SSE 4.0 mph 8.0 mph 34% 0.00 in meteobridge W/m2
01:59 43.0 °F 16.5 °F 30.57 in South 4.9 mph 6.0 mph 34% 0.00 in meteobridge W/m2
02:04 43.0 °F 17.8 °F 30.56 in SSE 0.9 mph 4.0 mph 36% 0.00 in meteobridge W/m2
02:09 42.8 °F 17.1 °F 30.56 in Calm   7.0 mph 35% 0.00 in meteobridge W/m2
02:14 42.8 °F 17.1 °F 30.56 in Calm   4.0 mph 35% 0.00 in meteobridge W/m2
02:19 42.6 °F 16.9 °F 30.56 in SE 6.9 mph 7.0 mph 35% 0.00 in meteobridge W/m2
02:24 42.6 °F 16.9 °F 30.56 in ESE 4.0 mph 7.0 mph 35% 0.00 in meteobridge W/m2
02:29 42.6 °F 16.2 °F 30.57 in Calm   5.0 mph 34% 0.00 in meteobridge W/m2
02:34 42.6 °F 17.6 °F 30.58 in ESE 4.0 mph 5.0 mph 36% 0.00 in meteobridge W/m2
02:39 42.6 °F 16.9 °F 30.58 in Calm   4.0 mph 35% 0.00 in meteobridge W/m2
02:44 42.4 °F 16.7 °F 30.58 in ESE 2.0 mph 7.0 mph 35% 0.00 in meteobridge W/m2
02:49 42.4 °F 16.7 °F 30.58 in ESE 0.9 mph 4.0 mph 35% 0.00 in meteobridge W/m2
02:54 42.4 °F 16.7 °F 30.58 in ESE 2.0 mph 5.0 mph 35% 0.00 in meteobridge W/m2
02:59 42.4 °F 16.7 °F 30.57 in Calm   4.0 mph 35% 0.00 in meteobridge W/m2
03:04 42.3 °F 16.5 °F 30.57 in Calm   4.0 mph 35% 0.00 in meteobridge W/m2
03:09 42.1 °F 16.3 °F 30.58 in SE 2.0 mph 7.0 mph 35% 0.00 in meteobridge W/m2
03:14 42.3 °F 16.5 °F 30.58 in ESE 2.0 mph 7.0 mph 35% 0.00 in meteobridge W/m2
03:19 42.1 °F 17.1 °F 30.57 in SE 6.9 mph 7.0 mph 36% 0.00 in meteobridge W/m2
03:24 41.9 °F 16.2 °F 30.57 in Calm   9.0 mph 35% 0.00 in meteobridge W/m2
03:29 41.9 °F 16.9 °F 30.57 in ESE 0.9 mph 7.0 mph 36% 0.00 in meteobridge W/m2
03:34 41.7 °F 17.4 °F 30.57 in Calm   6.0 mph 37% 0.00 in meteobridge W/m2
03:39 41.7 °F 16.2 °F 30.57 in Calm   7.0 mph 35% 0.00 in meteobridge W/m2
03:44 41.7 °F 16.2 °F 30.57 in ESE 0.9 mph 2.0 mph 35% 0.00 in meteobridge W/m2
03:49 41.7 °F 16.7 °F 30.58 in Calm   1.0 mph 36% 0.00 in meteobridge W/m2
03:54 41.7 °F 16.7 °F 30.58 in Calm   4.0 mph 36% 0.00 in meteobridge W/m2
03:59 41.5 °F 16.0 °F 30.57 in ESE 0.9 mph 5.0 mph 35% 0.00 in meteobridge W/m2
04:04 41.5 °F 16.0 °F 30.58 in ESE 0.9 mph 4.0 mph 35% 0.00 in meteobridge W/m2
04:09 41.4 °F 15.8 °F 30.57 in Calm   5.0 mph 35% 0.00 in meteobridge W/m2
04:14 41.4 °F 17.1 °F 30.58 in Calm     37% 0.00 in meteobridge W/m2
04:19 41.4 °F 16.3 °F 30.58 in Calm   7.0 mph 36% 0.00 in meteobridge W/m2
04:24 41.2 °F 16.9 °F 30.58 in Calm   4.0 mph 37% 0.00 in meteobridge W/m2
04:29 41.2 °F 16.9 °F 30.58 in Calm   7.0 mph 37% 0.00 in meteobridge W/m2
04:34 41.0 °F 16.7 °F 30.57 in SE 0.9 mph 6.0 mph 37% 0.00 in meteobridge W/m2
04:39 40.8 °F 16.5 °F 30.57 in SE 2.0 mph 5.0 mph 37% 0.00 in meteobridge W/m2
04:44 40.8 °F 16.5 °F 30.57 in SE 4.9 mph 8.0 mph 37% 0.00 in meteobridge W/m2
04:49 40.8 °F 16.5 °F 30.56 in ENE 2.0 mph 9.0 mph 37% 0.00 in meteobridge W/m2
04:54 40.8 °F 16.5 °F 30.56 in Calm   2.0 mph 37% 0.00 in meteobridge W/m2
04:59 40.6 °F 16.3 °F 30.57 in Calm   5.0 mph 37% 0.00 in meteobridge W/m2
05:04 40.6 °F 17.1 °F 30.57 in Calm   2.0 mph 38% 0.00 in meteobridge W/m2
05:09 40.6 °F 16.3 °F 30.57 in Calm   6.0 mph 37% 0.00 in meteobridge W/m2
05:14 40.6 °F 16.3 °F 30.57 in SE 0.9 mph 5.0 mph 37% 0.00 in meteobridge W/m2
05:19 40.6 °F 15.8 °F 30.58 in SSE 0.9 mph 8.0 mph 36% 0.00 in meteobridge W/m2
05:24 40.6 °F 15.8 °F 30.57 in Calm   5.0 mph 36% 0.00 in meteobridge W/m2
05:29 40.6 °F 15.8 °F 30.57 in SE 4.9 mph 6.0 mph 36% 0.00 in meteobridge W/m2
05:34 40.6 °F 15.8 °F 30.56 in SSE 0.9 mph 5.0 mph 36% 0.00 in meteobridge W/m2
05:39 40.6 °F 15.8 °F 30.56 in Calm   7.0 mph 36% 0.00 in meteobridge W/m2
05:44 40.6 °F 15.8 °F 30.57 in Calm   5.0 mph 36% 0.00 in meteobridge W/m2
05:49 40.6 °F 15.8 °F 30.57 in Calm   1.0 mph 36% 0.00 in meteobridge W/m2
05:54 40.5 °F 16.2 °F 30.57 in East 0.9 mph 6.0 mph 37% 0.00 in meteobridge W/m2
05:59 40.5 °F 15.6 °F 30.57 in ESE 4.0 mph 8.0 mph 36% 0.00 in meteobridge W/m2
06:04 40.5 °F 15.6 °F 30.58 in Calm   6.0 mph 36% 0.00 in meteobridge W/m2
06:09 40.5 °F 15.6 °F 30.58 in ESE 2.0 mph 6.0 mph 36% 0.00 in meteobridge W/m2
06:14 40.5 °F 16.9 °F 30.56 in Calm   6.0 mph 38% 0.00 in meteobridge W/m2
06:19 40.3 °F 16.2 °F 30.56 in East 4.0 mph 7.0 mph 37% 0.00 in meteobridge W/m2
06:24 40.3 °F 16.7 °F 30.58 in East 0.9 mph 6.0 mph 38% 0.00 in meteobridge W/m2
06:29 40.3 °F 16.7 °F 30.58 in SE 4.0 mph 11.0 mph 38% 0.00 in meteobridge W/m2
06:34 39.9 °F 16.3 °F 30.57 in ESE 4.0 mph 9.0 mph 38% 0.00 in meteobridge W/m2
06:39 39.9 °F 16.3 °F 30.57 in SE 8.1 mph 8.0 mph 38% 0.00 in meteobridge W/m2
06:44 39.9 °F 16.9 °F 30.57 in Calm   2.0 mph 39% 0.00 in meteobridge W/m2
06:49 39.9 °F 16.3 °F 30.58 in Calm   7.0 mph 38% 0.00 in meteobridge W/m2
06:54 39.9 °F 16.9 °F 30.58 in East 0.9 mph 5.0 mph 39% 0.00 in meteobridge W/m2
06:59 39.9 °F 17.6 °F 30.57 in Calm   2.0 mph 40% 0.00 in meteobridge W/m2
07:04 39.9 °F 16.9 °F 30.57 in ESE 2.0 mph 8.0 mph 39% 0.00 in meteobridge W/m2
07:09 39.9 °F 16.9 °F 30.57 in ESE 4.0 mph 6.0 mph 39% 0.00 in meteobridge W/m2
07:14 39.9 °F 16.9 °F 30.56 in East 4.9 mph 7.0 mph 39% 0.00 in meteobridge W/m2
07:19 39.9 °F 17.6 °F 30.56 in Calm     40% 0.00 in meteobridge W/m2
07:24 39.9 °F 16.9 °F 30.57 in Calm   2.0 mph 39% 0.00 in meteobridge W/m2
07:29 40.1 °F 17.1 °F 30.57 in East 4.0 mph 4.0 mph 39% 0.00 in meteobridge W/m2
07:34 40.1 °F 16.5 °F 30.58 in South 4.9 mph 5.0 mph 38% 0.00 in meteobridge W/m2
07:39 40.3 °F 16.7 °F 30.58 in Calm   6.0 mph 38% 0.00 in meteobridge W/m2
07:44 40.3 °F 16.7 °F 30.58 in Calm   4.0 mph 38% 0.00 in meteobridge W/m2
07:49 40.3 °F 17.2 °F 30.58 in Calm   2.0 mph 39% 0.00 in meteobridge W/m2
07:54 40.3 °F 16.7 °F 30.57 in Calm   7.0 mph 38% 0.00 in meteobridge W/m2
07:59 40.3 °F 17.2 °F 30.58 in Calm   6.0 mph 39% 0.00 in meteobridge W/m2
08:04 40.3 °F 16.7 °F 30.58 in Calm   1.0 mph 38% 0.00 in meteobridge W/m2
08:09 40.3 °F 16.7 °F 30.58 in Calm   5.0 mph 38% 0.00 in meteobridge W/m2
08:14 40.5 °F 16.9 °F 30.58 in ESE 2.0 mph 5.0 mph 38% 0.00 in meteobridge W/m2
08:19 40.5 °F 18.0 °F 30.57 in SSE 0.9 mph 4.0 mph 40% 0.00 in meteobridge W/m2
08:24 40.5 °F 17.4 °F 30.57 in Calm   7.0 mph 39% 0.00 in meteobridge W/m2
08:29 40.5 °F 17.4 °F 30.57 in ESE 2.0 mph 5.0 mph 39% 0.00 in meteobridge W/m2
08:34 40.3 °F 16.7 °F 30.56 in Calm   8.0 mph 38% 0.00 in meteobridge W/m2
08:39 40.3 °F 18.0 °F 30.55 in Calm   2.0 mph 40% 0.00 in meteobridge W/m2
08:44 40.3 °F 18.0 °F 30.55 in SSE 2.0 mph 4.0 mph 40% 0.00 in meteobridge W/m2
08:49 40.3 °F 17.2 °F 30.55 in ESE 0.9 mph 2.0 mph 39% 0.00 in meteobridge W/m2
08:54 40.3 °F 18.0 °F 30.55 in Calm   2.0 mph 40% 0.00 in meteobridge W/m2
08:59 40.3 °F 18.0 °F 30.55 in Calm   1.0 mph 40% 0.00 in meteobridge W/m2
09:04 40.3 °F 18.0 °F 30.55 in ENE 0.9 mph 4.0 mph 40% 0.00 in meteobridge W/m2
09:09 40.5 °F 18.7 °F 30.57 in East 4.9 mph 8.0 mph 41% 0.00 in meteobridge W/m2
09:14 40.3 °F 18.5 °F 30.57 in SE 0.9 mph 6.0 mph 41% 0.00 in meteobridge W/m2
09:19 40.3 °F 19.6 °F 30.57 in Calm   3.0 mph 43% 0.00 in meteobridge W/m2
09:24 40.3 °F 20.7 °F 30.58 in Calm   1.0 mph 45% 0.00 in meteobridge W/m2
09:29 39.7 °F 21.2 °F 30.58 in SE 0.9 mph 4.0 mph 47% 0.00 in meteobridge W/m2
09:34 39.4 °F 22.8 °F 30.58 in Calm   1.0 mph 51% 0.00 in meteobridge W/m2
09:39 38.8 °F 24.1 °F 30.58 in Calm   7.0 mph 55% 0.00 in meteobridge W/m2
09:44 38.3 °F 26.4 °F 30.58 in SSE 2.0 mph 4.0 mph 62% 0.00 in meteobridge W/m2
09:49 37.6 °F 25.7 °F 30.58 in East 4.0 mph 4.0 mph 62% 0.00 in meteobridge W/m2
09:54 37.0 °F 25.7 °F 30.58 in ESE 0.9 mph 7.0 mph 63% 0.00 in meteobridge W/m2
09:59 36.9 °F 25.0 °F 30.58 in Calm   5.0 mph 62% 0.00 in meteobridge W/m2
10:04 36.9 °F 25.9 °F 30.58 in Calm   2.0 mph 64% 0.00 in meteobridge W/m2
10:09 37.0 °F 25.2 °F 30.57 in ESE 4.0 mph 4.0 mph 62% 0.00 in meteobridge W/m2
10:14 37.2 °F 25.0 °F 30.57 in Calm   6.0 mph 61% 0.00 in meteobridge W/m2
10:19 37.2 °F 25.7 °F 30.56 in East 4.9 mph 7.0 mph 63% 0.00 in meteobridge W/m2
10:24 37.0 °F 26.4 °F 30.57 in SE 4.0 mph 5.0 mph 65% 0.00 in meteobridge W/m2
10:29 36.9 °F 26.2 °F 30.57 in SE 0.9 mph 7.0 mph 65% 0.00 in meteobridge W/m2
10:34 36.9 °F 26.2 °F 30.57 in ESE 0.9 mph 9.0 mph 65% 0.00 in meteobridge W/m2
10:39 36.9 °F 26.2 °F 30.56 in Calm   4.0 mph 65% 0.00 in meteobridge W/m2
10:44 36.9 °F 25.9 °F 30.56 in ESE 0.9 mph 1.0 mph 64% 0.00 in meteobridge W/m2
10:49 37.0 °F 26.4 °F 30.56 in SSE 0.9 mph 1.0 mph 65% 0.00 in meteobridge W/m2
10:54 37.0 °F 26.1 °F 30.55 in Calm   8.0 mph 64% 0.00 in meteobridge W/m2
10:59 37.0 °F 26.1 °F 30.55 in SE 4.9 mph 5.0 mph 64% 0.00 in meteobridge W/m2
11:04 37.0 °F 26.1 °F 30.55 in Calm   5.0 mph 64% 0.00 in meteobridge W/m2
11:09 37.0 °F 26.1 °F 30.55 in Calm   1.0 mph 64% 0.00 in meteobridge W/m2
11:14 37.2 °F 26.2 °F 30.55 in Calm   6.0 mph 64% 0.00 in meteobridge W/m2
11:19 37.2 °F 25.3 °F 30.54 in East 0.9 mph 5.0 mph 62% 0.00 in meteobridge W/m2
11:24 37.4 °F 26.4 °F 30.54 in Calm   1.0 mph 64% 0.00 in meteobridge W/m2
11:29 37.4 °F 26.8 °F 30.54 in Calm   4.0 mph 65% 0.00 in meteobridge W/m2
11:34 37.0 °F 27.9 °F 30.54 in Calm     69% 0.00 in meteobridge W/m2
11:39 36.9 °F 28.0 °F 30.53 in Calm   6.0 mph 70% 0.00 in meteobridge W/m2
11:44 36.7 °F 28.6 °F 30.53 in East 2.9 mph 3.0 mph 72% 0.00 in meteobridge W/m2
11:49 36.7 °F 28.6 °F 30.53 in SE 4.9 mph 6.0 mph 72% 0.00 in meteobridge W/m2
11:54 36.7 °F 27.9 °F 30.53 in Calm   7.0 mph 70% 0.00 in meteobridge W/m2
11:59 36.9 °F 28.0 °F 30.53 in ENE 0.9 mph 1.0 mph 70% 0.00 in meteobridge W/m2
12:04 36.9 °F 28.0 °F 30.53 in Calm     70% 0.00 in meteobridge W/m2
12:09 37.0 °F 27.5 °F 30.52 in SE 0.9 mph 4.0 mph 68% 0.00 in meteobridge W/m2
12:14 37.2 °F 27.7 °F 30.52 in Calm   1.0 mph 68% 0.00 in meteobridge W/m2
12:19 37.4 °F 29.1 °F 30.52 in Calm     72% 0.00 in meteobridge W/m2
12:24 37.2 °F 29.7 °F 30.51 in Calm   1.0 mph 74% 0.00 in meteobridge W/m2
12:29 37.2 °F 29.3 °F 30.50 in Calm     73% 0.00 in meteobridge W/m2
12:34 37.0 °F 29.8 °F 30.50 in Calm     75% 0.00 in meteobridge W/m2
12:39 37.0 °F 30.2 °F 30.50 in ESE 0.9 mph 2.0 mph 76% 0.00 in meteobridge W/m2
12:44 36.9 °F 30.0 °F 30.50 in Calm     76% 0.00 in meteobridge W/m2
12:49 36.9 °F 30.6 °F 30.49 in Calm   4.0 mph 78% 0.00 in meteobridge W/m2
12:54 36.7 °F 30.7 °F 30.49 in Calm     79% 0.00 in meteobridge W/m2
12:59 36.3 °F 30.2 °F 30.48 in SSE 0.9 mph 5.0 mph 78% 0.00 in meteobridge W/m2
13:04 36.3 °F 30.7 °F 30.49 in SSE 0.9 mph 4.0 mph 80% 0.00 in meteobridge W/m2
13:09 36.1 °F 30.6 °F 30.48 in Calm     80% 0.00 in meteobridge W/m2
13:14 36.1 °F 30.9 °F 30.48 in Calm     81% 0.00 in meteobridge W/m2
13:19 36.1 °F 31.1 °F 30.48 in Calm     82% 0.00 in meteobridge W/m2
13:24 36.1 °F 32.0 °F 30.48 in Calm     85% 0.00 in meteobridge W/m2
13:29 36.1 °F 32.0 °F 30.48 in Calm     85% 0.00 in meteobridge W/m2
13:34 36.0 °F 32.2 °F 30.48 in Calm     86% 0.00 in meteobridge W/m2
13:39 36.0 °F 32.5 °F 30.47 in Calm     87% 0.01 in meteobridge W/m2
13:44 36.0 °F 32.7 °F 30.47 in Calm     88% 0.01 in meteobridge W/m2
13:49 35.8 °F 32.9 °F 30.46 in Calm   1.0 mph 89% 0.01 in meteobridge W/m2
13:54 35.8 °F 33.1 °F 30.46 in Calm     90% 0.01 in meteobridge W/m2
13:59 35.6 °F 33.3 °F 30.45 in Calm     91% 0.02 in meteobridge W/m2
14:04 35.4 °F 33.1 °F 30.45 in Calm     91% 0.02 in meteobridge W/m2
14:09 35.4 °F 33.1 °F 30.45 in Calm   2.0 mph 91% 0.02 in meteobridge W/m2
14:14 35.4 °F 33.3 °F 30.45 in Calm     92% 0.02 in meteobridge W/m2
14:19 35.4 °F 33.1 °F 30.44 in Calm     91% 0.02 in meteobridge W/m2
14:24 35.2 °F 33.1 °F 30.44 in Calm     92% 0.02 in meteobridge W/m2
14:29 35.2 °F 32.9 °F 30.44 in Calm     91% 0.02 in meteobridge W/m2
14:34 35.2 °F 32.9 °F 30.44 in SSE 0.9 mph 2.0 mph 91% 0.02 in meteobridge W/m2
14:39 35.2 °F 32.9 °F 30.44 in Calm     91% 0.01 in meteobridge W/m2
14:44 35.2 °F 32.9 °F 30.44 in Calm     91% 0.01 in meteobridge W/m2
14:49 35.2 °F 32.9 °F 30.44 in Calm   1.0 mph 91% 0.01 in meteobridge W/m2
14:54 35.4 °F 33.1 °F 30.44 in Calm     91% 0.01 in meteobridge W/m2
14:59 35.6 °F 33.4 °F 30.44 in Calm   1.0 mph 92% 0.00 in meteobridge W/m2
15:04 35.8 °F 33.4 °F 30.44 in Calm     91% 0.00 in meteobridge W/m2
15:09 35.8 °F 33.4 °F 30.44 in Calm     91% 0.00 in meteobridge W/m2
15:14 36.0 °F 33.8 °F 30.44 in Calm     92% 0.00 in meteobridge W/m2
15:19 36.1 °F 33.8 °F 30.43 in Calm     91% 0.00 in meteobridge W/m2
15:24 36.3 °F 34.0 °F 30.43 in Calm     91% 0.00 in meteobridge W/m2
15:29 36.3 °F 34.2 °F 30.43 in Calm     92% 0.00 in meteobridge W/m2
15:34 36.7 °F 34.5 °F 30.43 in Calm     92% 0.00 in meteobridge W/m2
15:39 36.9 °F 35.1 °F 30.43 in Calm     93% 0.00 in meteobridge W/m2
15:44 36.9 °F 35.1 °F 30.43 in Calm     93% 0.00 in meteobridge W/m2
15:49 37.0 °F 35.2 °F 30.43 in Calm     93% 0.00 in meteobridge W/m2
15:54 37.0 °F 35.2 °F 30.42 in Calm     93% 0.00 in meteobridge W/m2
15:59 37.0 °F 35.2 °F 30.43 in Calm     93% 0.00 in meteobridge W/m2
16:04 37.2 °F 35.4 °F 30.42 in Calm     93% 0.00 in meteobridge W/m2
16:09 37.2 °F 35.1 °F 30.43 in Calm     92% 0.00 in meteobridge W/m2
16:14 37.2 °F 35.1 °F 30.43 in Calm     92% 0.00 in meteobridge W/m2
16:19 37.4 °F 35.2 °F 30.43 in Calm   1.0 mph 92% 0.00 in meteobridge W/m2
16:24 37.4 °F 35.2 °F 30.43 in Calm     92% 0.00 in meteobridge W/m2
16:29 37.6 °F 35.2 °F 30.43 in Calm     91% 0.00 in meteobridge W/m2
16:34 37.6 °F 35.4 °F 30.42 in Calm     92% 0.00 in meteobridge W/m2
16:39 37.8 °F 35.6 °F 30.42 in Calm     92% 0.00 in meteobridge W/m2
16:44 37.8 °F 35.6 °F 30.42 in Calm     92% 0.00 in meteobridge W/m2
16:49 37.9 °F 35.8 °F 30.42 in Calm     92% 0.00 in meteobridge W/m2
16:54 38.1 °F 36.0 °F 30.42 in Calm     92% 0.00 in meteobridge W/m2
16:59 38.1 °F 35.8 °F 30.42 in Calm     91% 0.00 in meteobridge W/m2
17:04 38.3 °F 36.0 °F 30.42 in Calm     91% 0.00 in meteobridge W/m2
17:09 38.5 °F 36.3 °F 30.42 in Calm     92% 0.00 in meteobridge W/m2
17:14 38.5 °F 36.3 °F 30.42 in Calm     92% 0.00 in meteobridge W/m2
17:19 38.7 °F 36.5 °F 30.41 in Calm     92% 0.00 in meteobridge W/m2
17:24 38.8 °F 36.7 °F 30.41 in Calm     92% 0.00 in meteobridge W/m2
17:29 38.8 °F 36.7 °F 30.41 in Calm     92% 0.00 in meteobridge W/m2
17:34 38.8 °F 36.7 °F 30.41 in Calm     92% 0.00 in meteobridge W/m2
17:39 39.0 °F 36.9 °F 30.41 in Calm     92% 0.00 in meteobridge W/m2
17:44 39.0 °F 36.9 °F 30.41 in Calm     92% 0.00 in meteobridge W/m2
17:49 39.2 °F 37.0 °F 30.41 in Calm     92% 0.00 in meteobridge W/m2
17:54 39.4 °F 37.2 °F 30.41 in Calm     92% 0.00 in meteobridge W/m2
17:59 39.4 °F 37.2 °F 30.41 in Calm   2.0 mph 92% 0.00 in meteobridge W/m2
18:04 39.4 °F 37.0 °F 30.41 in Calm     91% 0.00 in meteobridge W/m2
18:09 39.6 °F 37.4 °F 30.41 in Calm     92% 0.00 in meteobridge W/m2
18:14 39.6 °F 37.2 °F 30.40 in Calm     91% 0.00 in meteobridge W/m2
18:19 39.6 °F 37.2 °F 30.40 in Calm     91% 0.00 in meteobridge W/m2
18:24 39.7 °F 37.6 °F 30.40 in Calm     92% 0.00 in meteobridge W/m2
18:29 39.7 °F 37.6 °F 30.40 in Calm     92% 0.00 in meteobridge W/m2
18:34 39.9 °F 37.8 °F 30.40 in Calm     92% 0.00 in meteobridge W/m2
18:39 39.9 °F 37.8 °F 30.40 in Calm     92% 0.00 in meteobridge W/m2
18:44 39.9 °F 38.1 °F 30.40 in Calm     93% 0.00 in meteobridge W/m2
18:49 39.9 °F 37.8 °F 30.40 in Calm     92% 0.00 in meteobridge W/m2
18:54 40.1 °F 37.9 °F 30.40 in Calm     92% 0.00 in meteobridge W/m2
18:59 40.1 °F 38.3 °F 30.41 in Calm     93% 0.00 in meteobridge W/m2
19:04 39.9 °F 38.1 °F 30.41 in Calm     93% 0.00 in meteobridge W/m2
19:09 40.1 °F 38.3 °F 30.41 in Calm     93% 0.00 in meteobridge W/m2
19:14 40.3 °F 38.7 °F 30.41 in Calm     94% 0.00 in meteobridge W/m2
19:19 40.3 °F 38.7 °F 30.41 in Calm     94% 0.00 in meteobridge W/m2
19:24 40.3 °F 38.7 °F 30.41 in Calm     94% 0.00 in meteobridge W/m2
19:29 40.3 °F 38.7 °F 30.41 in Calm     94% 0.00 in meteobridge W/m2
19:34 40.3 °F 38.7 °F 30.41 in Calm     94% 0.00 in meteobridge W/m2
19:39 40.3 °F 38.7 °F 30.41 in Calm     94% 0.00 in meteobridge W/m2
19:43 40.5 °F 38.8 °F 30.41 in Calm     94% 0.00 in meteobridge W/m2
19:49 40.5 °F 39.2 °F 30.41 in Calm   1.0 mph 95% 0.00 in meteobridge W/m2
19:54 40.5 °F 38.8 °F 30.42 in Calm     94% 0.00 in meteobridge W/m2
19:59 40.5 °F 38.8 °F 30.42 in Calm     94% 0.00 in meteobridge W/m2
20:04 40.5 °F 38.8 °F 30.42 in Calm     94% 0.00 in meteobridge W/m2
20:09 40.6 °F 39.0 °F 30.42 in Calm     94% 0.00 in meteobridge W/m2
20:14 40.6 °F 39.0 °F 30.42 in Calm     94% 0.00 in meteobridge W/m2
20:19 40.6 °F 39.0 °F 30.42 in Calm     94% 0.00 in meteobridge W/m2
20:24 40.6 °F 39.0 °F 30.42 in Calm     94% 0.00 in meteobridge W/m2
20:29 40.8 °F 39.2 °F 30.41 in Calm     94% 0.00 in meteobridge W/m2
20:34 40.8 °F 39.6 °F 30.41 in Calm     95% 0.01 in meteobridge W/m2
20:39 40.6 °F 39.4 °F 30.41 in Calm     95% 0.01 in meteobridge W/m2
20:44 40.6 °F 39.4 °F 30.41 in Calm     95% 0.01 in meteobridge W/m2
20:49 40.8 °F 39.6 °F 30.41 in Calm     95% 0.02 in meteobridge W/m2
20:53 40.6 °F 39.6 °F 30.41 in Calm     96% 0.02 in meteobridge W/m2
20:59 40.8 °F 39.6 °F 30.40 in Calm     95% 0.02 in meteobridge W/m2
21:04 40.8 °F 39.7 °F 30.41 in Calm     96% 0.02 in meteobridge W/m2
21:09 40.8 °F 39.7 °F 30.41 in Calm     96% 0.02 in meteobridge W/m2
21:14 40.8 °F 39.7 °F 30.40 in Calm     96% 0.02 in meteobridge W/m2
21:19 40.8 °F 39.7 °F 30.40 in Calm     96% 0.02 in meteobridge W/m2
21:24 41.0 °F 39.9 °F 30.40 in Calm     96% 0.03 in meteobridge W/m2
21:29 41.2 °F 40.1 °F 30.40 in Calm     96% 0.03 in meteobridge W/m2
21:34 41.2 °F 40.1 °F 30.40 in Calm     96% 0.02 in meteobridge W/m2
21:39 41.2 °F 40.1 °F 30.40 in Calm     96% 0.03 in meteobridge W/m2
21:44 41.2 °F 40.1 °F 30.40 in Calm     96% 0.03 in meteobridge W/m2
21:49 41.2 °F 40.1 °F 30.40 in Calm     96% 0.02 in meteobridge W/m2
21:54 41.2 °F 40.1 °F 30.39 in Calm     96% 0.02 in meteobridge W/m2
21:59 41.2 °F 40.1 °F 30.39 in Calm     96% 0.03 in meteobridge W/m2
22:04 41.2 °F 40.5 °F 30.39 in Calm     97% 0.03 in meteobridge W/m2
22:09 41.2 °F 40.1 °F 30.39 in Calm     96% 0.04 in meteobridge W/m2
22:14 41.2 °F 40.5 °F 30.40 in Calm     97% 0.04 in meteobridge W/m2
22:19 41.2 °F 40.5 °F 30.39 in Calm     97% 0.04 in meteobridge W/m2
22:24 41.2 °F 40.5 °F 30.39 in Calm     97% 0.03 in meteobridge W/m2
22:29 41.4 °F 40.6 °F 30.38 in Calm     97% 0.04 in meteobridge W/m2
22:34 41.4 °F 40.6 °F 30.38 in Calm     97% 0.04 in meteobridge W/m2
22:39 41.4 °F 40.6 °F 30.38 in Calm     97% 0.03 in meteobridge W/m2
22:44 41.4 °F 40.6 °F 30.38 in Calm     97% 0.03 in meteobridge W/m2
22:49 41.4 °F 40.6 °F 30.38 in Calm     97% 0.03 in meteobridge W/m2
22:54 41.4 °F 40.6 °F 30.38 in Calm     97% 0.03 in meteobridge W/m2
22:59 41.4 °F 40.6 °F 30.38 in Calm     97% 0.03 in meteobridge W/m2
23:04 41.4 °F 40.6 °F 30.38 in Calm     97% 0.03 in meteobridge W/m2
23:09 41.4 °F 40.6 °F 30.38 in Calm     97% 0.02 in meteobridge W/m2
23:14 41.4 °F 40.6 °F 30.38 in Calm     97% 0.03 in meteobridge W/m2
23:19 41.5 °F 40.8 °F 30.37 in Calm     97% 0.03 in meteobridge W/m2
23:24 41.5 °F 40.8 °F 30.37 in Calm     97% 0.03 in meteobridge W/m2
23:29 41.5 °F 40.8 °F 30.37 in Calm     97% 0.02 in meteobridge W/m2
23:34 41.5 °F 40.8 °F 30.36 in Calm     97% 0.03 in meteobridge W/m2
23:39 41.5 °F 40.8 °F 30.36 in Calm     97% 0.03 in meteobridge W/m2
23:44 41.5 °F 40.8 °F 30.35 in Calm     97% 0.04 in meteobridge W/m2
23:49 41.7 °F 41.0 °F 30.35 in Calm     97% 0.05 in meteobridge W/m2
23:54 41.7 °F 41.0 °F 30.35 in Calm     97% 0.06 in meteobridge W/m2
23:59 41.7 °F 41.0 °F 30.35 in Calm     97% 0.06 in meteobridge W/m2
EllijayWeather
Compliments of Weather Underground - 2.5 mb